FW0226 Weather Reports


Display with metric or nautical units.
time (UTC)temp
F
wind
direction
speed
MPH
gust
MPH
rain 1hr
in
rain 24hr
in
rain mn
in
humidity
%
barometer
mb
20240722053037 75 359 0.0 0.0 0.00 0.03 0.00 98 1018.3
20240722051531 75 359 0.0 0.0 0.00 0.03 0.00 98 1018.4
20240722050028 76 359 0.0 0.0 0.00 0.03 0.00 98 1018.5
20240722044550 76 359 0.0 0.0 0.00 0.03 0.00 97 1018.6
20240722043035 76 359 0.0 0.0 0.00 0.03 0.00 97 1018.6
20240722041524 76 359 0.0 0.0 0.00 0.03 0.00 97 1018.7
20240722040035 76 359 0.0 0.0 0.00 0.03 0.00 97 1018.9
20240722034525 76 359 0.0 2.0 0.00 0.05 0.03 97 1018.7
20240722033021 76 359 0.0 0.0 0.00 0.05 0.03 96 1018.7
20240722031524 76 359 0.0 1.0 0.00 0.05 0.03 96 1018.8
20240722030020 77 359 0.0 0.0 0.00 0.05 0.03 95 1018.8
20240722024535 77 359 0.0 0.0 0.00 0.93 0.03 96 1018.7
20240722023019 78 359 0.0 0.0 0.00 0.93 0.03 95 1018.7
20240722021519 78 359 1.0 4.0 0.00 0.93 0.03 95 1018.7
20240722020030 78 359 0.0 3.0 0.00 0.93 0.03 95 1018.5
20240722014519 79 359 0.0 0.0 0.00 0.93 0.03 95 1018.5
20240722013027 79 359 0.0 2.0 0.00 0.93 0.03 94 1018.4
20240722011517 79 359 0.0 0.0 0.00 0.93 0.03 94 1018.3
20240722010017 79 359 0.0 0.0 0.00 0.93 0.03 94 1018.1
20240722004519 80 359 0.0 0.0 0.00 0.93 0.03 92 1017.7
20240722003016 81 359 0.0 0.0 0.00 0.93 0.03 91 1017.3
20240722001516 82 359 0.0 0.0 0.00 0.93 0.03 89 1017.2
20240722000022 83 359 0.0 0.0 0.00 0.93 0.03 87 1017.1
20240721234517 83 359 0.0 0.0 0.00 0.93 0.03 85 1017.0
20240721233015 84 359 0.0 0.0 0.00 0.93 0.03 82 1017.0
20240721231514 84 359 0.0 0.0 0.00 0.93 0.03 82 1017.0
20240721230021 85 359 0.0 0.0 0.00 0.93 0.03 80 1016.9
20240721224513 85 359 0.0 0.0 0.00 0.93 0.03 79 1016.7
20240721223012 85 359 0.0 0.0 0.00 0.93 0.03 79 1016.8
20240721221511 85 197 0.0 0.0 0.00 0.93 0.03 81 1016.7
20240721220010 85 359 0.0 5.0 0.00 0.93 0.03 82 1016.8
20240721214514 84 359 0.0 3.0 0.00 0.93 0.03 80 1016.9
20240721213006 84 359 0.0 0.0 0.00 0.93 0.03 82 1017.0
20240721211514 82 359 0.0 3.0 0.00 0.93 0.03 84 1017.0
20240721210005 82 359 0.0 5.0 0.00 0.93 0.03 89 1017.1
20240721204505 83 359 0.0 4.0 0.00 0.93 0.03 87 1017.3
20240721203004 83 359 0.0 0.0 0.00 0.93 0.03 83 1017.4
20240721201504 84 359 0.0 0.0 0.00 0.93 0.03 83 1017.4
20240721200002 83 359 0.0 0.0 0.02 0.93 0.03 85 1017.5
20240721194501 82 359 0.0 0.0 0.02 0.93 0.03 85 1017.5
20240721193002 81 359 0.0 1.0 0.02 0.93 0.03 88 1017.9
20240721191600 81 359 0.0 2.0 0.02 0.93 0.03 87 1018.0
20240721190100 81 359 0.0 3.0 0.00 0.91 0.01 85 1018.2
20240721184559 82 359 0.0 0.0 0.00 0.91 0.01 84 1018.1
20240721183102 83 359 0.0 0.0 0.00 0.91 0.01 82 1018.3
20240721181612 83 359 0.0 0.0 0.00 0.91 0.01 83 1018.3
20240721180102 82 359 0.0 3.0 0.00 0.91 0.01 83 1018.4
20240721174559 82 359 0.0 0.0 0.00 0.91 0.01 85 1018.4
20240721173106 83 359 0.0 4.0 0.00 0.91 0.01 82 1018.4
20240721171555 83 359 0.0 0.0 0.00 0.91 0.01 83 1018.4
20240721170052 82 359 0.0 0.0 0.00 0.91 0.01 85 1018.7
20240721164551 81 359 0.0 0.0 0.00 0.91 0.01 84 1018.7
20240721163053 81 359 0.0 0.0 0.00 0.91 0.01 85 1018.7
20240721161551 81 359 0.0 0.0 0.00 0.91 0.01 84 1018.8
20240721160100 81 359 0.0 4.0 0.00 0.91 0.01 85 1018.9
20240721154554 80 359 0.0 2.0 0.00 0.91 0.01 88 1018.9
20240721153043 79 359 0.0 0.0 0.00 0.91 0.01 89 1018.8
20240721151542 78 359 0.0 3.0 0.00 0.91 0.01 90 1018.8
20240721150047 78 359 0.0 0.0 0.00 0.91 0.01 91 1019.0
20240721144544 78 359 0.0 0.0 0.00 0.91 0.01 91 1018.7
20240721143035 78 359 0.0 0.0 0.00 0.91 0.01 93 1018.9
20240721141535 77 359 0.0 0.0 0.00 0.91 0.01 95 1018.6
20240721140057 77 359 0.0 0.0 0.00 0.91 0.01 96 1018.7
20240721134531 77 359 0.0 1.0 0.00 0.91 0.01 97 1018.5
20240721133032 76 359 0.0 0.0 0.00 0.91 0.01 98 1018.7
20240721131527 76 359 0.0 0.0 0.00 0.91 0.01 98 1018.7
20240721130025 76 359 0.0 0.0 0.00 0.91 0.01 99 1018.6
20240721124524 75 359 0.0 0.0 0.00 0.91 0.01 99 1018.7
20240721123022 75 359 0.0 3.0 0.00 0.91 0.01 99 1018.7
20240721121526 75 359 0.0 2.0 0.00 0.91 0.01 99 1018.3
20240721120024 74 359 0.0 0.0 0.00 0.91 0.01 99 1018.0
20240721114519 74 359 0.0 0.0 0.00 0.91 0.01 99 1018.2
20240721113019 74 359 0.0 0.0 0.00 0.91 0.01 98 1018.1
20240721111527 74 359 0.0 0.0 0.00 0.91 0.01 98 1018.1
20240721110017 74 359 0.0 0.0 0.00 0.91 0.01 98 1018.1
20240721104533 75 359 0.0 3.0 0.00 0.91 0.01 98 1018.1
20240721103015 75 359 0.0 0.0 0.00 0.91 0.01 98 1018.1
20240721101517 75 359 0.0 0.0 0.00 0.91 0.01 98 1017.8
20240721100012 75 359 0.0 6.0 0.00 0.91 0.01 98 1017.8
20240721094515 75 359 0.0 0.0 0.00 0.91 0.01 98 1017.7
20240721093010 75 359 0.0 4.0 0.00 0.91 0.01 98 1017.7
20240721091508 74 359 0.0 6.0 0.00 0.91 0.01 98 1017.5
20240721090010 74 359 0.0 5.0 0.00 0.91 0.01 98 1017.4
20240721084510 75 359 1.0 12.0 0.00 0.91 0.01 99 1017.3
20240721083006 74 359 4.0 12.0 0.00 0.91 0.01 99 1017.3
20240721081506 74 359 2.0 10.0 0.00 0.91 0.01 99 1017.0
20240721080004 74 359 0.0 5.0 0.00 0.91 0.01 99 1016.9
20240721074504 73 359 0.0 4.0 0.00 0.91 0.01 99 1016.9
20240721073003 73 359 2.0 5.0 0.00 0.91 0.01 99 1016.8
20240721071501 73 359 0.0 0.0 0.00 0.91 0.01 99 1016.9
20240721070100 73 359 0.0 4.0 0.00 0.91 0.01 99 1017.0
20240721064607 73 359 1.0 6.0 0.00 0.91 0.01 99 1017.2
20240721063059 73 359 0.0 4.0 0.01 0.91 0.01 99 1017.5
20240721061557 73 359 0.0 0.0 0.01 0.91 0.01 99 1017.6
20240721060057 73 359 0.0 4.0 0.01 0.91 0.01 99 1017.4
20240721054556 73 359 0.0 4.0 0.01 0.91 0.01 99 1017.6